Location: Ammerl�gen
(47.2167°N, 9.6000°E)
Time: 16:33:35
(UTC+00:00)

Envisat - Pass Details

Date: 29 September 2021
Orbit: 764 x 766 km, 98.2° (Epoch: 19 October)

Event Time Altitude Azimuth Distance (km) Brightness Sun altitude
Rises 03:08:31 0° 30° (NNE) 3,241 7.1 -22.3°
Reaches altitude 10° 03:11:58 10° 55° (NE) 2,308 6.6 -21.8°
Maximum altitude 03:14:40 14° 87° (E) 2,017 6.1 -21.3°
Drops below altitude 10° 03:17:21 10° 120° (ESE) 2,299 6.0 -20.9°
Sets 03:20:46 0° 144° (SE) 3,218 6.4 -20.4°
